Location: Landeleau
(48.2273°N, 3.7285°W)
Time: 17:07:54
(UTC+00:00)

Cosmos 1726 Rocket - Pass Details

Date: 30 March 2020
Orbit: 602 x 631 km, 82.5° (Epoch: 28 May)

Event Time Altitude Azimuth Distance (km) Brightness Sun altitude
Exits shadow 21:10:40 79° 78° (ENE) 638 3.4 -23.4°
Drops below altitude 10° 21:15:01 10° 12° (NNE) 2,005 6.5 -24.0°
Sets 21:17:16 0° 11° (N) 2,921 7.4 -24.3°
